Phoenix Deer Valley, AZ

12:01 PM MST on November 18, 2019 (GMT -0700)
Phoenix-Deer Valley Municipal

Weather History for KDVT - September, 2019

Change the Weather History Date:

Tuesday, September 3, 2019

  Actual Average Record
Temperature  
Mean Temperature 94 °F -  
Max Temperature 107 °F 97 °F 106 °F (2010)
Min Temperature 82 °F 77 °F 69 °F (1999)
Cooling Degree Days 30    
Growing Degree Days 44 (Base 50)    
Moisture  
Dew Point 58 °F    
Average Humidity 30    
Maximum Humidity 47    
Minimum Humidity 18    
Precipitation  
Precipitation 0.00 in - - ()
Sea Level Pressure  
Sea Level Pressure 29.76 in    
Wind  
Wind Speed 6 mph ()    
Max Wind Speed 13 mph    
Max Gust Speed 20 mph    
Visibility 10.0 miles    
Events      
Averages and records for this station are not official NWS values.
T = Trace of Precipitation, MM = Missing Value Source: Averaged Metar Reports

Daily Weather History Graph

Daily Weather History Graph

Search for Another Location

Airport or City:

Astronomy

Sep. 03, 2019 Rise Set
Actual Time 6:03 AM MST 6:51 PM MST
Civil Twilight 5:38 AM MST 7:16 PM MST
Nautical Twilight 5:08 AM MST 7:46 PM MST
Astronomical Twilight 4:37 AM MST 8:17 PM MST
Moon 10:47 AM MST (9/3) 10:05 PM MST (9/3)
Length of Visible Light 13h 38m
Length of Day
12h 47m
Waxing Crescent, 25% of the Moon is Illuminated
Sep 3
Waxing Crescent
Sep 5
First Quarter
Sep 13
Full
Sep 21
Last Quarter
Sep 28
New

Hourly Weather History & Observations

Time (MST) Temp. Heat Index Dew Point Humidity Pressure Visibility Wind Dir Wind Speed Gust Speed Precip Events Conditions
12:53 AM 91.9 °F 91.2 °F 59.0 °F 33% 29.80 in 10.0 mi WSW 11.5 mph - N/A   Clear
1:53 AM 91.0 °F 90.0 °F 57.9 °F 33% 29.80 in 10.0 mi West 5.8 mph - N/A   Clear
2:53 AM 86.0 °F 85.4 °F 59.0 °F 40% 29.80 in 10.0 mi NE 3.5 mph - N/A   Clear
3:53 AM 84.9 °F 84.4 °F 59.0 °F 41% 29.80 in 10.0 mi East 6.9 mph - N/A   Clear
4:53 AM 84.9 °F 84.8 °F 60.1 °F 43% 29.82 in 10.0 mi Calm Calm - N/A   Clear
5:53 AM 82.9 °F 83.3 °F 61.0 °F 47% 29.83 in 10.0 mi East 4.6 mph - N/A   Clear
6:53 AM 84.9 °F 85.0 °F 61.0 °F 44% 29.84 in 10.0 mi East 5.8 mph - N/A   Clear
7:53 AM 88.0 °F 88.7 °F 63.0 °F 43% 29.85 in 10.0 mi SE 5.8 mph - N/A   Clear
8:53 AM 90.0 °F 91.3 °F 64.0 °F 42% 29.84 in 10.0 mi Variable 4.6 mph - N/A   Clear
9:53 AM 93.0 °F 93.8 °F 62.1 °F 36% 29.84 in 10.0 mi Variable 4.6 mph - N/A   Clear
10:53 AM 95.0 °F 95.6 °F 62.1 °F 33% 29.82 in 10.0 mi Variable 3.5 mph - N/A   Clear
11:53 AM 98.1 °F 98.6 °F 61.0 °F 29% 29.79 in 10.0 mi Variable 6.9 mph - N/A   Clear
12:36 PM 100.0 °F 101.2 °F 61.0 °F 28% 29.86 in 10.0 mi West 8.1 mph - N/A   Clear
12:53 PM 100.0 °F 100.7 °F 60.1 °F 27% 29.77 in 10.0 mi WSW 11.5 mph - N/A   Clear
1:53 PM 102.9 °F 103.0 °F 57.9 °F 23% 29.73 in 10.0 mi SSW 9.2 mph - N/A   Clear
2:53 PM 105.1 °F 104.4 °F 55.9 °F 20% 29.69 in 10.0 mi SW 12.7 mph 15.0 mph N/A   Clear
3:53 PM 107.1 °F 106.7 °F 57.0 °F 19% 29.67 in 10.0 mi WSW 9.2 mph 19.6 mph N/A   Clear
4:53 PM 107.1 °F 106.0 °F 55.0 °F 18% 29.66 in 10.0 mi SW 11.5 mph 17.3 mph N/A   Clear
5:53 PM 106.0 °F 105.1 °F 55.0 °F 19% 29.66 in 10.0 mi SW 12.7 mph 18.4 mph N/A   Clear
6:53 PM 102.9 °F 101.4 °F 54.0 °F 20% 29.67 in 10.0 mi SW 12.7 mph - N/A   Clear
7:53 PM 102.0 °F 100.1 °F 54.0 °F 20% 29.67 in 10.0 mi WSW 12.7 mph - N/A   Clear
8:16 PM 100.0 °F 97.9 °F 53.1 °F 21% 29.77 in 10.0 mi NNE 8.1 mph - N/A   Clear
8:53 PM 97.0 °F - 52.0 °F 22% 29.69 in 10.0 mi NW 6.9 mph - N/A   Clear
9:53 PM 96.1 °F 93.8 °F 54.0 °F 24% 29.70 in 10.0 mi ENE 3.5 mph - N/A   Clear
10:53 PM 93.9 °F 91.4 °F 53.1 °F 25% 29.72 in 10.0 mi East 4.6 mph - N/A   Clear
11:53 PM 95.0 °F 92.7 °F 54.0 °F 25% 29.72 in 10.0 mi NE 4.6 mph - N/A   Clear